Hourly Weather Pernik

Today, 11 July, Saturday

Time Temperature Precipitation Wind Pressure Humidity
00:00 +16°C° 0 mm 1 mps 692 mmHg 79%
01:00 +15°C° 0 mm 1 mps 692 mmHg 81%
02:00 +15°C° 0 mm 1 mps 692 mmHg 85%
03:00 +15°C° 0 mm 1 mps 692 mmHg 86%
04:00 +14°C° 0 mm 1 mps 692 mmHg 87%
05:00 +14°C° 0 mm 1 mps 692 mmHg 88%
06:00 +16°C° 0 mm 1 mps 692 mmHg 82%
07:00 +19°C° 0 mm 1 mps 693 mmHg 77%
08:00 +21°C° 0 mm 1 mps 693 mmHg 68%
09:00 +22°C° 0 mm 1 mps 693 mmHg 63%
10:00 +24°C° 0 mm 2 mps 693 mmHg 58%
11:00 +26°C° 0 mm 2 mps 693 mmHg 52%
12:00 +26°C° 0 mm 2 mps 693 mmHg 50%
13:00 +27°C° 0 mm 2 mps 693 mmHg 47%
14:00 +28°C° 0 mm 2 mps 693 mmHg 45%
15:00 +28°C° 0 mm 2 mps 692 mmHg 46%
16:00 +27°C° 0 mm 2 mps 692 mmHg 47%
17:00 +27°C° 0 mm 2 mps 692 mmHg 48%
18:00 +25°C° 0 mm 2 mps 691 mmHg 54%
19:00 +23°C° 0 mm 2 mps 691 mmHg 61%
20:00 +21°C° 0 mm 1 mps 691 mmHg 67%
21:00 +20°C° 0 mm 1 mps 691 mmHg 69%
22:00 +19°C° 0 mm 1 mps 691 mmHg 71%
23:00 +18°C° 0 mm 1 mps 691 mmHg 73%

Tomorrow, 12 July, Sunday

Time Temperature Precipitation Wind Pressure Humidity
00:00 +18°C° 0 mm 1 mps 691 mmHg 76%
01:00 +16°C° 0 mm 1 mps 690 mmHg 78%
02:00 +16°C° 0 mm 1 mps 690 mmHg 81%
03:00 +15°C° 0 mm 1 mps 690 mmHg 82%
04:00 +15°C° 0 mm 1 mps 690 mmHg 83%
05:00 +15°C° 0 mm 1 mps 691 mmHg 84%
06:00 +16°C° 0 mm 2 mps 691 mmHg 81%
07:00 +18°C° 0 mm 2 mps 692 mmHg 78%
08:00 +19°C° 0 mm 3 mps 692 mmHg 75%
09:00 +20°C° 0 mm 3 mps 693 mmHg 72%
10:00 +21°C° 0 mm 4 mps 693 mmHg 68%
11:00 +22°C° 0 mm 4 mps 693 mmHg 65%
12:00 +22°C° 0 mm 4 mps 693 mmHg 65%
13:00 +22°C° 0 mm 5 mps 693 mmHg 64%
14:00 +22°C° 0 mm 5 mps 693 mmHg 64%
15:00 +22°C° 0 mm 5 mps 693 mmHg 66%
16:00 +21°C° 0 mm 5 mps 692 mmHg 67%
17:00 +21°C° 0 mm 5 mps 692 mmHg 68%
18:00 +19°C° 0 mm 4 mps 692 mmHg 73%
19:00 +17°C° 0 mm 3 mps 692 mmHg 78%
20:00 +16°C° 0 mm 3 mps 692 mmHg 83%
21:00 +15°C° 0 mm 2 mps 692 mmHg 85%
22:00 +14°C° 0 mm 2 mps 692 mmHg 87%
23:00 +13°C° 0 mm 2 mps 692 mmHg 88%

Day after tomorrow, 13 July, Monday

Time Temperature Precipitation Wind Pressure Humidity
00:00 +12°C° 0 mm 2 mps 692 mmHg 88%
01:00 +12°C° 0 mm 2 mps 692 mmHg 88%
02:00 +10°C° 0 mm 2 mps 692 mmHg 88%
03:00 +10°C° 0 mm 2 mps 692 mmHg 89%
04:00 +9°C° 0 mm 2 mps 692 mmHg 90%
05:00 +9°C° 0 mm 2 mps 691 mmHg 90%
06:00 +10°C° 0 mm 2 mps 692 mmHg 84%
07:00 +11°C° 0 mm 3 mps 692 mmHg 78%
08:00 +13°C° 0 mm 3 mps 692 mmHg 71%
09:00 +14°C° 0 mm 4 mps 693 mmHg 68%
10:00 +15°C° 0 mm 4 mps 693 mmHg 65%
11:00 +17°C° 0 mm 4 mps 693 mmHg 62%
12:00 +18°C° 0 mm 4 mps 693 mmHg 60%
13:00 +19°C° 0 mm 4 mps 693 mmHg 58%
14:00 +20°C° 0 mm 4 mps 693 mmHg 57%
15:00 +20°C° 0 mm 4 mps 693 mmHg 59%
16:00 +20°C° 0 mm 4 mps 692 mmHg 61%
17:00 +20°C° 0 mm 3 mps 692 mmHg 63%
18:00 +18°C° 0 mm 3 mps 692 mmHg 70%
19:00 +16°C° 0 mm 2 mps 692 mmHg 77%
20:00 +15°C° 0 mm 2 mps 692 mmHg 84%
21:00 +14°C° 0 mm 1 mps 692 mmHg 85%
22:00 +13°C° 0 mm 1 mps 692 mmHg 86%
23:00 +12°C° 0 mm 1 mps 692 mmHg 88%

14 July, Tuesday

Time Temperature Precipitation Wind Pressure Humidity
00:00 +12°C° 0 mm 1 mps 692 mmHg 88%
01:00 +12°C° 0 mm 1 mps 692 mmHg 88%
02:00 +11°C° 0 mm 1 mps 692 mmHg 88%
03:00 +10°C° 0 mm 0 mps 692 mmHg 89%
04:00 +10°C° 0 mm 0 mps 691 mmHg 90%
05:00 +9°C° 0 mm 0 mps 691 mmHg 90%
06:00 +11°C° 0 mm 0 mps 692 mmHg 85%
07:00 +14°C° 0 mm 1 mps 692 mmHg 79%
08:00 +16°C° 0 mm 1 mps 693 mmHg 74%
09:00 +19°C° 0 mm 1 mps 693 mmHg 67%
10:00 +20°C° 0 mm 1 mps 693 mmHg 60%
11:00 +22°C° 0 mm 1 mps 693 mmHg 53%
12:00 +23°C° 0 mm 2 mps 693 mmHg 50%
13:00 +23°C° 0 mm 2 mps 693 mmHg 47%
14:00 +24°C° 0 mm 2 mps 692 mmHg 44%
15:00 +24°C° 0 mm 2 mps 692 mmHg 45%
16:00 +24°C° 0 mm 1 mps 692 mmHg 45%
17:00 +24°C° 0 mm 1 mps 691 mmHg 46%
18:00 +22°C° 0 mm 1 mps 691 mmHg 53%
19:00 +20°C° 0 mm 1 mps 691 mmHg 60%
20:00 +18°C° 0 mm 1 mps 691 mmHg 67%
21:00 +16°C° 0 mm 1 mps 691 mmHg 69%
22:00 +15°C° 0 mm 1 mps 691 mmHg 71%
23:00 +14°C° 0 mm 1 mps 691 mmHg 73%

15 July, Wednesday

Time Temperature Precipitation Wind Pressure Humidity
00:00 +14°C° 0 mm 1 mps 691 mmHg 74%
01:00 +13°C° 0 mm 1 mps 691 mmHg 76%
02:00 +13°C° 0 mm 1 mps 691 mmHg 78%
03:00 +12°C° 0 mm 1 mps 691 mmHg 79%
04:00 +12°C° 0 mm 1 mps 691 mmHg 80%
05:00 +12°C° 0 mm 1 mps 690 mmHg 82%
06:00 +14°C° 0 mm 1 mps 691 mmHg 76%
07:00 +16°C° 0 mm 1 mps 691 mmHg 71%
08:00 +19°C° 0 mm 1 mps 692 mmHg 65%
09:00 +20°C° 0 mm 1 mps 692 mmHg 61%
10:00 +22°C° 0 mm 1 mps 692 mmHg 57%
11:00 +24°C° 0 mm 1 mps 692 mmHg 52%
12:00 +25°C° 0 mm 1 mps 692 mmHg 50%
13:00 +25°C° 0 mm 1 mps 692 mmHg 48%
14:00 +26°C° 0 mm 1 mps 692 mmHg 46%
15:00 +26°C° 0 mm 1 mps 691 mmHg 47%
16:00 +26°C° 0 mm 1 mps 691 mmHg 49%
17:00 +25°C° 0 mm 1 mps 691 mmHg 51%
18:00 +23°C° 0 mm 1 mps 691 mmHg 57%
19:00 +22°C° 0 mm 1 mps 690 mmHg 64%
20:00 +20°C° 0 mm 1 mps 690 mmHg 71%
21:00 +19°C° 0.1 mm 1 mps 690 mmHg 73%
22:00 +18°C° 0.1 mm 1 mps 690 mmHg 75%
23:00 +16°C° 0.1 mm 1 mps 690 mmHg 77%

16 July, Thursday

Time Temperature Precipitation Wind Pressure Humidity
00:00 +16°C° 0.1 mm 1 mps 690 mmHg 78%
01:00 +14°C° 0.1 mm 0 mps 690 mmHg 79%
02:00 +14°C° 0.1 mm 0 mps 690 mmHg 79%
03:00 +13°C° 0.1 mm 0 mps 690 mmHg 81%
04:00 +13°C° 0.1 mm 0 mps 690 mmHg 82%
05:00 +13°C° 0.1 mm 0 mps 690 mmHg 83%
06:00 +14°C° 0 mm 0 mps 690 mmHg 78%
07:00 +16°C° 0 mm 0 mps 690 mmHg 74%
08:00 +18°C° 0 mm 0 mps 691 mmHg 70%
09:00 +22°C° 0 mm 1 mps 691 mmHg 63%
10:00 +24°C° 0 mm 1 mps 691 mmHg 56%
11:00 +25°C° 0 mm 2 mps 691 mmHg 49%
12:00 +26°C° 0 mm 2 mps 691 mmHg 46%
13:00 +27°C° 0 mm 2 mps 691 mmHg 43%
14:00 +27°C° 0 mm 3 mps 691 mmHg 40%
15:00 +27°C° 0 mm 3 mps 690 mmHg 44%
16:00 +26°C° 0 mm 3 mps 690 mmHg 48%
17:00 +26°C° 0 mm 3 mps 690 mmHg 51%
18:00 +24°C° 0 mm 3 mps 689 mmHg 58%
19:00 +21°C° 0 mm 2 mps 689 mmHg 65%
20:00 +20°C° 0 mm 1 mps 689 mmHg 72%
21:00 +19°C° 0 mm 1 mps 689 mmHg 74%
22:00 +18°C° 0 mm 1 mps 689 mmHg 76%
23:00 +16°C° 0 mm 1 mps 689 mmHg 78%
Show more